K0HYD Weather Reports


Display with metric or nautical units.
time (UTC)temp
F
wind
direction
speed
MPH
gust
MPH
rain 1hr
in
rain 24hr
in
rain mn
in
humidity
%
barometer
mb
20260505234157 52 62 0.0 1.0 0.00 0.00 0.01 73 1011.6
20260505232656 52 58 0.0 1.0 0.00 0.00 0.01 72 1011.3
20260505231155 52 1 0.0 1.0 0.00 0.00 0.01 72 1011.3
20260505225654 52 70 0.0 1.0 0.00 0.00 0.01 72 1010.9
20260505224153 52 44 0.0 3.0 0.00 0.00 0.01 70 1011.1
20260505221151 52 23 1.0 5.0 0.00 0.00 0.01 69 1010.9
20260505215650 53 86 1.0 3.0 0.00 0.00 0.01 68 1011.1
20260505212648 52 65 1.0 1.0 0.00 0.00 0.01 69 1011.5
20260505205646 52 5 0.0 6.0 0.00 0.00 0.01 69 1011.4
20260505204146 52 34 7.0 9.0 0.00 0.00 0.01 72 1011.3
20260505202645 51 78 0.0 3.0 0.00 0.00 0.01 73 1011.4
20260505195642 51 58 0.0 3.0 0.00 0.00 0.01 70 1011.6
20260505194142 52 22 0.0 9.0 0.00 0.00 0.01 69 1011.3
20260505192640 52 25 2.0 5.0 0.00 0.00 0.01 71 1011.1
20260505191140 51 55 0.0 7.0 0.00 0.00 0.01 73 1011.1
20260505185639 51 53 6.0 7.0 0.00 0.00 0.01 75 1010.9
20260505184138 51 53 1.0 6.0 0.00 0.00 0.01 73 1010.8
20260505182637 52 43 1.0 11.0 0.00 0.00 0.01 71 1010.7
20260505181136 51 33 1.0 7.0 0.00 0.00 0.01 71 1010.7
20260505175635 51 43 0.0 15.0 0.00 0.00 0.01 72 1010.5
20260505174134 51 61 0.0 10.0 0.00 0.00 0.01 72 1010.8
20260505172633 50 53 1.0 7.0 0.00 0.00 0.01 75 1010.5
20260505171132 49 49 1.0 12.0 0.00 0.00 0.01 80 1010.7
20260505164130 51 43 0.0 16.0 0.00 0.00 0.00 66 1010.3
20260505162629 51 43 7.0 18.0 0.00 0.00 0.00 67 1010.4
20260505161128 52 30 0.0 13.0 0.00 0.00 0.00 66 1010.2
20260505152625 53 72 0.0 15.0 0.00 0.00 0.00 61 1009.3
20260505151124 53 12 0.0 14.0 0.00 0.00 0.00 62 1008.8
20260505124115 53 44 11.0 15.0 0.00 0.00 0.00 58 1006.8
20260505122614 53 11 0.0 7.0 0.00 0.00 0.00 58 1006.4
20260505115612 53 43 0.0 13.0 0.00 0.00 0.00 58 1006.0
20260505114111 53 49 0.0 17.0 0.00 0.00 0.00 58 1005.7
20260505112610 54 341 0.0 14.0 0.00 0.00 0.00 56 1005.5
20260505111109 54 72 0.0 14.0 0.00 0.00 0.00 55 1005.3
20260505101105 55 18 6.0 17.0 0.00 0.00 0.00 59 1004.0
20260505095604 55 65 5.0 13.0 0.00 0.00 0.00 63 1004.0
20260505094103 55 41 7.0 13.0 0.00 0.00 0.00 62 1003.8
20260505091101 56 89 4.0 15.0 0.00 0.00 0.00 68 1003.4
20260505085600 56 58 1.0 14.0 0.00 0.00 0.00 71 1003.4
20260505081057 59 354 6.0 12.0 0.00 0.00 0.00 81 1002.4
20260505075557 59 65 0.0 5.0 0.00 0.00 0.00 82 1002.0
20260505074055 60 34 0.0 2.0 0.00 0.00 0.00 81 1002.2
20260505072554 60 23 0.0 5.0 0.00 0.00 0.00 82 1002.1
20260505071053 59 50 0.0 1.0 0.00 0.00 0.00 84 1001.8
20260505065553 60 11 1.0 11.0 0.00 0.00 0.00 84 1001.7
20260505064052 64 79 1.0 1.0 0.00 0.00 0.00 73 1001.6
20260505062551 65 39 0.0 12.0 0.00 0.00 0.00 69 1001.3
20260505061050 69 321 0.0 1.0 0.00 0.00 0.00 79 1001.6
20260505055549 70 43 0.0 1.0 0.00 0.00 0.00 80 1000.7
20260505054048 71 41 0.0 1.0 0.00 0.00 0.00 75 1000.5
20260505052547 71 158 0.0 4.0 0.00 0.00 0.00 75 1000.3
20260505035541 70 79 0.0 0.0 0.00 0.00 0.00 72 1000.0
20260505032539 72 152 0.0 1.0 0.00 0.00 0.00 68 999.5
20260505031038 72 134 0.0 1.0 0.00 0.00 0.00 66 999.9
20260505025537 73 142 0.0 1.0 0.00 0.00 0.00 64 999.3
20260505022535 74 165 0.0 12.0 0.00 0.00 0.00 62 999.5
20260505021034 74 163 0.0 4.0 0.00 0.00 0.00 60 999.6
20260505015534 75 126 1.0 3.0 0.00 0.00 0.00 59 1000.1
20260505012532 76 145 0.0 1.0 0.00 0.00 0.00 55 999.4
20260505011030 76 140 5.0 7.0 0.00 0.00 0.00 54 999.0
20260505005530 77 174 0.0 8.0 0.00 0.00 0.00 52 998.9
20260505004028 78 143 6.0 6.0 0.00 0.00 0.00 50 998.7
20260505002528 78 134 0.0 6.0 0.00 0.00 0.00 49 999.0
20260504235526 80 128 3.0 6.0 0.00 0.00 0.00 46 999.1